[[{"header":{"parameterUnit":"m.s-1","parameterCategory":2,"la1":30.2991,"la2":30.254,"lo1":-89.0895,"lo2":-89.0444,"dy":0.0017,"dx":0.0017,"nx":28,"ny":28,"refTime":"2024-07-17T21:00:00:Z","depth":"0","parameterNumber":2,"parameterNumberName":"U-component_of_CURRENTS"},"data":[0,0,0,0,0,0,0,0,0,0,0,0,0,0,0,0,0,0,0,0,0,0,0,0,0,0,0,0,0,0,0,0,0,0,0,0,0,0,0,0,0,0,0,0,0,0,0,0,0,0,0,0,0,0,0,0,0,0,0.3027,0.3028,0,0.3103,0.3104,0.3105,0.3093,0.3092,0.309,0.3089,0.3096,0.3098,0.3099,0,0,0,0,0,0,0,0,0,0,0,0,0,0.2967,0.2967,0.3027,0.3028,0.3029,0.3103,0.3104,0.3105,0.3093,0.3092,0.309,0.3089,0.3096,0.3098,0.3099,0,0,0,0,0,0,0,0,0,0,0,0,0,0.3012,0.2967,0.3027,0.3033,0.3034,0.3103,0.3104,0.3105,0.3093,0.3092,0.309,0.3088,0.3096,0.3097,0.3099,0.3148,0,0,0.3105,0.3106,0,0,0,0,0,0,0,0,0.3009,0.3014,0.3031,0.3033,0.3035,0.3088,0.3086,0.3116,0.3094,0.307,0.3089,0.3087,0.3089,0.3092,0.3109,0.3148,0.3148,0.3106,0.3107,0.3108,0.3108,0,0,0,0,0,0,0,0.3006,0.3011,0.3056,0.3033,0.3035,0.3065,0.3068,0.3092,0.3087,0.3072,0.3071,0.3082,0.3089,0.3108,0.3109,0.3148,0.3105,0.3107,0.3108,0.3109,0.3255,0.3258,0,0,0,0,0,0,0.2996,0.3008,0.3054,0.3059,0.3018,0.3067,0.3071,0.3072,0.3088,0.309,0.3084,0.3081,0.3105,0.3107,0.3109,0.3191,0.3108,0.3109,0.3111,0.3252,0.3256,0.3259,0,0,0,0,0,0,0.2994,0.2999,0.3051,0.3036,0.3045,0.3069,0.3071,0.3074,0.3092,0.3098,0.3097,0.3098,0.3104,0.3107,0.314,0.319,0.311,0.3112,0.3249,0.3253,0.3257,0.3339,0,0,0,0,0,0,0.2992,0.2998,0.3,0.3035,0.3046,0.3102,0.3073,0.3077,0.3102,0.31,0.3111,0.3109,0.3103,0.3137,0.3142,0.3191,0.3114,0.3246,0.3251,0.3256,0.3333,0.3346,0.3356,0,0,0,0,0,0.2989,0.301,0.2999,0.3006,0.3046,0.3104,0.3113,0.3123,0.3105,0.3129,0.3131,0.3109,0.3173,0.3141,0.3146,0.3197,0.3243,0.325,0.3255,0.3328,0.3343,0.3356,0,0,0,0,0,0,0.2994,0.3012,0.3001,0.3026,0.3062,0.3102,0.3131,0.3132,0.3156,0.315,0.3139,0.314,0.3194,0.3187,0.3152,0.3256,0.3207,0.3215,0.3261,0.3275,0.3287,0.3288,0.3115,0,0,0,0,0,0.2993,0.3006,0.3034,0.3057,0.3076,0.3102,0.3126,0.3135,0.3161,0.3169,0.3174,0.319,0.3228,0.3239,0.3267,0.3319,0.3321,0.3358,0.337,0.3379,0.3386,0.345,0.3467,0.3279,0.3278,0.3278,0,0,0.3004,0.3014,0.3023,0.3058,0.3086,0.3126,0.3112,0.3161,0.3194,0.3168,0.3212,0.3233,0.3252,0.3315,0.3338,0.3309,0.3434,0.3387,0.3395,0.3396,0.3458,0.3476,0.3492,0.3283,0.3282,0.3281,0,0,0.3037,0.3041,0.3061,0.3093,0.3135,0.3158,0.3171,0.3214,0.3233,0.3282,0.3282,0.3332,0.3367,0.3405,0.3425,0.352,0.3497,0.3528,0.3583,0.3645,0.3661,0.3675,0.3692,0.3707,0.3529,0.3529,0.3529,0,0.305,0.3062,0.3083,0.3116,0.3142,0.317,0.3206,0.3248,0.3294,0.3322,0.3302,0.3401,0.3417,0.3509,0.3544,0.3548,0.3558,0.3524,0.3659,0.3673,0.3686,0.37,0.3715,0.3534,0.3533,0.3533,0.3532,0,0.3092,0.3105,0.3131,0.3164,0.3206,0.3249,0.33,0.3344,0.3362,0.3396,0.3484,0.3521,0.3574,0.3603,0.36,0.3712,0.368,0.3669,0.3619,0.371,0.3719,0.3733,0.354,0.3539,0.3537,0.3536,0,0,0.31,0.3146,0.3149,0.3166,0.3228,0.327,0.3341,0.3412,0.3463,0.3519,0.3592,0.3676,0.3694,0.372,0.3741,0.3799,0.39,0.3773,0.3774,0.378,0.4009,0.3799,0.3794,0.391,0.3913,0.3916,0.3975,0,0.3117,0.3162,0.3186,0.3244,0.3274,0.3326,0.3389,0.3463,0.3524,0.3608,0.3678,0.3757,0.3741,0.3781,0.3841,0.3896,0.3943,0.3883,0.3928,0.3929,0.3724,0.3806,0.3638,0.366,0.3988,0.399,0.3992,0,0.3125,0.3158,0.3201,0.3267,0.3288,0.3331,0.3433,0.3498,0.3626,0.3679,0.3772,0.3823,0.3938,0.3906,0.4028,0.3988,0.4005,0.4032,0.4034,0.3818,0.3746,0.3626,0.3673,0.3638,0.4014,0.4012,0.401,0,0.3092,0.3159,0.3185,0.3211,0.3302,0.3338,0.3395,0.3512,0.3583,0.3734,0.3799,0.3923,0.399,0.4057,0.4089,0.4078,0.4195,0.4186,0.401,0.3995,0.3848,0.3811,0.3854,0.4269,0.4269,0.4269,0.4269,0,0.3076,0.3099,0.3172,0.3191,0.3253,0.3322,0.3406,0.349,0.3621,0.3702,0.3827,0.3908,0.4034,0.4101,0.4128,0.4089,0.4221,0.4028,0.4005,0.3866,0.3833,0.3788,0.3791,0.4271,0.427,0.427,0.427,0,0.3022,0.3059,0.3108,0.32,0.3231,0.3279,0.3401,0.3464,0.3592,0.3706,0.3758,0.3925,0.3986,0.4056,0.4161,0.4102,0.3995,0.4065,0.3859,0.3807,0.3551,0.3563,0.3373,0.3294,0.3886,0.3881,0.3877,0,0.299,0.3008,0.3106,0.3138,0.3174,0.3255,0.3305,0.3438,0.3504,0.3691,0.3734,0.3847,0.3872,0.3921,0.3871,0.3846,0.3818,0.366,0.3599,0.3511,0.3514,0.3378,0.332,0.3458,0.3451,0.3445,0.344,0,0.2961,0.2994,0.3043,0.3097,0.3145,0.3202,0.3279,0.3323,0.3461,0.3537,0.3603,0.364,0.3663,0.3557,0.3514,0.3487,0.3474,0.353,0.354,0.3248,0.3012,0.2931,0.3429,0.3389,0.3394,0.3398,0.34,0.3402,0.295,0.2967,0.3022,0.3051,0.3097,0.3105,0.3092,0.3158,0.3202,0.3231,0.3377,0.3336,0.3336,0.3229,0.3183,0.3021,0.305,0.2948,0.2995,0.2882,0.2715,0.3041,0.2896,0.2898,0.29,0.2902,0.2903,0,0.2922,0.2934,0.297,0.2981,0.2952,0.3009,0.3031,0.2963,0.2903,0.2975,0.2965,0.2927,0.2813,0.2812,0.2686,0.2566,0.2471,0.2516,0.239,0.2383,0.2784,0.2676,0.2353,0.2353,0.2353,0.2353,0.2353,0.2353,0.2923,0.2913,0.2895,0.2811,0.28,0.2704,0.2664,0.2582,0.2578,0.2469,0.2431,0.2473,0.258,0.2537,0.2408,0.2338,0.2249,0.2035,0.2121,0.2531,0.2578,0.2624,0.2526,0.2177,0.2177,0.1596,0.1592,0.159]},{"header":{"parameterUnit":"m.s-1","parameterCategory":2,"la1":30.2991,"la2":30.254,"lo1":-89.0895,"lo2":-89.0444,"dy":0.0017,"dx":0.0017,"nx":28,"ny":28,"refTime":"2024-07-17T21:00:00:Z","depth":"0","parameterNumber":3,"parameterNumberName":"V-component_of_CURRENTS"},"data":[0,0,0,0,0,0,0,0,0,0,0,0,0,0,0,0,0,0,0,0,0,0,0,0,0,0,0,0,0,0,0,0,0,0,0,0,0,0,0,0,0,0,0,0,0,0,0,0,0,0,0,0,0,0,0,0,0,0,0.037,0.037,0,0.0376,0.0377,0.0377,0.0363,0.0362,0.0362,0.0361,0.0337,0.0337,0.0337,0,0,0,0,0,0,0,0,0,0,0,0,0,0.0338,0.0339,0.037,0.037,0.037,0.0376,0.0377,0.0377,0.0363,0.0362,0.0362,0.0361,0.0338,0.0337,0.0337,0,0,0,0,0,0,0,0,0,0,0,0,0,0.035,0.0339,0.037,0.0363,0.0363,0.0376,0.0377,0.0377,0.0363,0.0362,0.0361,0.0361,0.0338,0.0337,0.0337,0.0352,0,0,0.0337,0.0336,0,0,0,0,0,0,0,0,0.0349,0.0351,0.0364,0.0364,0.0363,0.0367,0.0356,0.0367,0.0363,0.0364,0.0361,0.036,0.0345,0.0344,0.0348,0.0351,0.035,0.0337,0.0336,0.0336,0.0336,0,0,0,0,0,0,0,0.0348,0.0351,0.0374,0.0365,0.0364,0.0357,0.0358,0.0358,0.0359,0.0364,0.0363,0.0362,0.0344,0.0349,0.0348,0.0349,0.0337,0.0336,0.0336,0.0336,0.0366,0.0367,0,0,0,0,0,0,0.0347,0.035,0.0373,0.0374,0.0353,0.0358,0.0359,0.0368,0.0359,0.0357,0.0363,0.0361,0.035,0.0348,0.0347,0.0386,0.0336,0.0336,0.0336,0.0365,0.0366,0.0367,0,0,0,0,0,0,0.0347,0.035,0.0373,0.0361,0.0363,0.036,0.0369,0.0368,0.0374,0.0359,0.0356,0.0369,0.0349,0.0347,0.0357,0.0383,0.0336,0.0336,0.0364,0.0366,0.0367,0.0449,0,0,0,0,0,0,0.0346,0.035,0.0358,0.0361,0.0364,0.0392,0.0369,0.0369,0.0374,0.0373,0.0364,0.0361,0.0348,0.0357,0.0357,0.0382,0.0336,0.0363,0.0365,0.0366,0.0445,0.0453,0.046,0,0,0,0,0,0.0345,0.0365,0.0359,0.0362,0.0375,0.0393,0.0395,0.0389,0.0375,0.0389,0.0381,0.0361,0.0367,0.0358,0.0357,0.0383,0.0362,0.0364,0.0366,0.0442,0.0451,0.046,0,0,0,0,0,0,0.0354,0.0365,0.0359,0.038,0.0388,0.039,0.0404,0.0395,0.04,0.0398,0.0376,0.0374,0.0391,0.0375,0.0365,0.0395,0.036,0.0362,0.0418,0.0427,0.0434,0.0453,0.0335,0,0,0,0,0,0.036,0.0379,0.0383,0.0401,0.0408,0.0406,0.0412,0.0409,0.0411,0.0412,0.0405,0.0398,0.04,0.0403,0.04,0.0421,0.0401,0.0434,0.0442,0.0448,0.0462,0.0457,0.0465,0.0374,0.0374,0.0374,0,0,0.0367,0.0376,0.0385,0.0404,0.0411,0.0437,0.0409,0.0427,0.0448,0.0409,0.0438,0.0423,0.0409,0.0433,0.0439,0.0424,0.0462,0.0451,0.0457,0.0467,0.046,0.0469,0.0476,0.0376,0.0375,0.0375,0,0,0.0398,0.0402,0.043,0.0443,0.0458,0.0463,0.0469,0.0477,0.0483,0.0504,0.0482,0.0486,0.0488,0.049,0.0489,0.0534,0.0498,0.0528,0.0587,0.0582,0.0589,0.0596,0.0576,0.058,0.0535,0.0535,0.0535,0,0.0403,0.0442,0.0441,0.0472,0.0492,0.0478,0.0516,0.0523,0.0532,0.0549,0.0523,0.0538,0.0519,0.0556,0.0568,0.0553,0.0537,0.0556,0.0592,0.0598,0.0604,0.0582,0.0585,0.0539,0.0539,0.0538,0.0538,0,0.0457,0.0487,0.0507,0.0545,0.0567,0.0598,0.0609,0.0628,0.0626,0.0632,0.0662,0.0638,0.065,0.064,0.0618,0.0654,0.0625,0.06,0.0573,0.0618,0.0591,0.0594,0.0545,0.0544,0.0543,0.0542,0,0,0.0476,0.0534,0.0542,0.058,0.0611,0.0642,0.068,0.0723,0.0765,0.0754,0.0807,0.0792,0.0776,0.0773,0.0744,0.0735,0.0747,0.0689,0.0687,0.0675,0.0728,0.0671,0.0667,0.0729,0.073,0.0731,0.0692,0,0.052,0.0598,0.0615,0.0695,0.074,0.0748,0.0793,0.0826,0.0845,0.0891,0.0866,0.09,0.0828,0.0843,0.0822,0.0774,0.0758,0.0759,0.0681,0.0679,0.0628,0.067,0.0685,0.065,0.0694,0.0695,0.0695,0,0.0569,0.0621,0.0704,0.0788,0.081,0.0852,0.0936,0.0977,0.1022,0.1037,0.1053,0.1036,0.1034,0.0962,0.0896,0.09,0.0824,0.0769,0.0766,0.0689,0.0627,0.0612,0.0651,0.0585,0.0698,0.0697,0.0697,0,0.06,0.0686,0.0762,0.0788,0.0872,0.0917,0.0966,0.1023,0.1089,0.114,0.119,0.1164,0.1177,0.108,0.0954,0.0934,0.0867,0.0825,0.0699,0.0693,0.0679,0.0671,0.0652,0.0777,0.0777,0.0777,0.0777,0,0.0647,0.0709,0.0784,0.083,0.0936,0.0971,0.1088,0.1126,0.1209,0.1313,0.1274,0.1337,0.1208,0.1151,0.1008,0.0862,0.0906,0.0721,0.0688,0.0706,0.07,0.0617,0.0567,0.0775,0.0776,0.0776,0.0776,0,0.0675,0.0716,0.0816,0.0917,0.0956,0.1035,0.1176,0.1264,0.1319,0.1454,0.1481,0.1483,0.1403,0.1245,0.1097,0.0948,0.0752,0.0733,0.0752,0.0721,0.0528,0.0481,0.041,0.038,0.0598,0.0597,0.0595,0,0.0698,0.075,0.0882,0.0954,0.1007,0.1128,0.1222,0.1313,0.1422,0.1548,0.1626,0.1592,0.1577,0.1321,0.1063,0.0809,0.0718,0.065,0.0608,0.0532,0.0456,0.0433,0.0411,0.0621,0.062,0.0619,0.0619,0,0.0755,0.0796,0.0883,0.1026,0.1137,0.1274,0.1416,0.1517,0.1641,0.1744,0.1849,0.1839,0.1606,0.1367,0.1014,0.0828,0.0613,0.0623,0.0558,0.0486,0.045,0.04,0.0618,0.0612,0.0612,0.0613,0.0613,0.0614,0.0801,0.0867,0.0979,0.1112,0.1242,0.1404,0.1525,0.1671,0.1837,0.1985,0.1982,0.198,0.1668,0.1188,0.0936,0.0542,0.0542,0.0428,0.0381,0.0368,0.0332,0.0519,0.0461,0.0461,0.0461,0.0461,0.0461,0,0.0862,0.0937,0.1063,0.1225,0.1363,0.1427,0.1646,0.1766,0.1946,0.2061,0.212,0.1985,0.1578,0.1184,0.0651,0.0376,0.0297,0.0237,0.0237,0.0228,0.0414,0.0411,0.0324,0.0324,0.0324,0.0324,0.0324,0.0324,0.0902,0.1014,0.1069,0.1287,0.1405,0.1599,0.1722,0.1888,0.2017,0.2145,0.2165,0.2168,0.1924,0.0973,0.0393,0.0243,0.0106,0.0034,-0.0027,0.0124,0.014,0.0155,0.0142,0.0001,0.0,-0.0156,-0.0157,-0.0159]}],[{"header":{"parameterUnit":"m.s-1","parameterCategory":2,"la1":30.2991,"la2":30.254,"lo1":-89.0895,"lo2":-89.0444,"dy":0.0017,"dx":0.0017,"nx":28,"ny":28,"refTime":"2024-07-17T21:00:00:Z","depth":"2","parameterNumber":2,"parameterNumberName":"U-component_of_CURRENTS"},"data":[0,0,0,0,0,0,0,0,0,0,0,0,0,0,0,0,0,0,0,0,0,0,0,0,0,0,0,0,0,0,0,0,0,0,0,0,0,0,0,0,0,0,0,0,0,0,0,0,0,0,0,0,0,0,0,0,0,0,0.2704,0.2704,0,0.274,0.2741,0.2741,0.274,0.2739,0.2739,0.2739,0.2769,0.277,0.2771,0,0,0,0,0,0,0,0,0,0,0,0,0,0.2667,0.2667,0.2704,0.2704,0.2705,0.274,0.2741,0.2741,0.274,0.2739,0.2739,0.2739,0.2768,0.277,0.2771,0,0,0,0,0,0,0,0,0,0,0,0,0,0.2687,0.2667,0.2703,0.2712,0.2713,0.274,0.2741,0.2741,0.274,0.2739,0.2739,0.2739,0.2768,0.2769,0.2771,0.2784,0,0,0.2775,0.2776,0,0,0,0,0,0,0,0,0.2686,0.2688,0.271,0.2711,0.2713,0.2738,0.2739,0.2756,0.274,0.2726,0.2739,0.2739,0.2761,0.2763,0.2765,0.2786,0.2787,0.2775,0.2776,0.2777,0.2777,0,0,0,0,0,0,0,0.2685,0.2687,0.2714,0.2711,0.2713,0.2726,0.2728,0.2742,0.2741,0.2727,0.2728,0.2738,0.2761,0.2763,0.2766,0.2788,0.2775,0.2777,0.2777,0.2778,0.2914,0.2917,0,0,0,0,0,0,0.2686,0.2685,0.2713,0.2716,0.2703,0.2727,0.2729,0.2727,0.2741,0.2744,0.2738,0.2738,0.2761,0.2764,0.2767,0.2831,0.2777,0.2778,0.2779,0.2911,0.2915,0.2918,0,0,0,0,0,0,0.2685,0.2688,0.2712,0.2705,0.271,0.2728,0.2726,0.2728,0.2744,0.275,0.2752,0.2754,0.2761,0.2765,0.2802,0.283,0.2779,0.278,0.2908,0.2912,0.2916,0.2929,0,0,0,0,0,0,0.2684,0.2687,0.2692,0.2705,0.271,0.2744,0.2727,0.2729,0.2752,0.2752,0.2765,0.2766,0.2761,0.28,0.2803,0.2831,0.2781,0.2905,0.291,0.2915,0.2925,0.2933,0.2939,0,0,0,0,0,0.2682,0.2695,0.2692,0.2696,0.2715,0.2746,0.275,0.2759,0.2753,0.277,0.2781,0.2766,0.2836,0.2803,0.2806,0.2835,0.2902,0.2909,0.2915,0.2921,0.2931,0.2939,0,0,0,0,0,0,0.2689,0.2697,0.2694,0.271,0.2732,0.2747,0.2765,0.277,0.2791,0.2795,0.2789,0.2793,0.2844,0.2847,0.281,0.2897,0.2872,0.2879,0.2877,0.2886,0.2893,0.2947,0.2782,0,0,0,0,0,0.2691,0.2699,0.2714,0.2731,0.274,0.2753,0.2768,0.278,0.2799,0.2807,0.2819,0.2842,0.2872,0.2882,0.2913,0.2946,0.2963,0.2976,0.2983,0.2989,0.3041,0.3077,0.3092,0.2938,0.2938,0.2938,0,0,0.2701,0.2707,0.2713,0.2734,0.2745,0.2768,0.2761,0.2795,0.2818,0.2809,0.2846,0.2871,0.2893,0.2937,0.296,0.2938,0.3037,0.2997,0.3001,0.3051,0.3085,0.31,0.3113,0.2942,0.2942,0.2941,0,0,0.2724,0.2726,0.2738,0.2761,0.279,0.2796,0.281,0.2838,0.2852,0.2895,0.2902,0.2959,0.2982,0.3017,0.3031,0.3106,0.3082,0.3104,0.3169,0.3201,0.3214,0.3225,0.323,0.3242,0.3096,0.3096,0.3096,0,0.2738,0.274,0.2753,0.2777,0.2791,0.2809,0.2829,0.2855,0.2897,0.2928,0.2917,0.3016,0.3032,0.31,0.3135,0.3124,0.3124,0.3116,0.3208,0.322,0.3231,0.3234,0.3247,0.3097,0.3097,0.3097,0.3097,0,0.2765,0.2773,0.2787,0.2807,0.2834,0.2857,0.2889,0.2936,0.2954,0.2983,0.3069,0.3103,0.3164,0.3176,0.318,0.3274,0.324,0.3212,0.3173,0.3247,0.3246,0.3258,0.3099,0.3099,0.3098,0.3098,0,0,0.2767,0.2794,0.2797,0.2812,0.2846,0.2877,0.2929,0.2982,0.3036,0.309,0.3157,0.324,0.3272,0.3299,0.3306,0.3356,0.3424,0.3326,0.3327,0.3313,0.3474,0.331,0.3308,0.339,0.3393,0.3396,0.3426,0,0.2772,0.2799,0.2816,0.2856,0.2867,0.2917,0.2964,0.3035,0.3084,0.3162,0.3228,0.3301,0.3302,0.3343,0.3391,0.3436,0.3466,0.3418,0.3427,0.3428,0.3257,0.3322,0.3058,0.3052,0.3439,0.3441,0.3442,0,0.2774,0.2791,0.2812,0.287,0.2884,0.2927,0.302,0.3072,0.3188,0.3236,0.3326,0.3369,0.3483,0.3455,0.3561,0.3521,0.352,0.3538,0.3537,0.3405,0.329,0.3053,0.3061,0.3464,0.3462,0.3461,0.3459,0,0.2741,0.2789,0.2798,0.2818,0.2891,0.2942,0.2993,0.3104,0.3162,0.3297,0.3361,0.3464,0.3525,0.3575,0.3612,0.3594,0.3696,0.3654,0.3501,0.3487,0.3284,0.3246,0.3724,0.3724,0.3724,0.3724,0.3723,0,0.2713,0.2733,0.2796,0.281,0.2869,0.2936,0.302,0.3104,0.3217,0.3287,0.3396,0.3459,0.3564,0.3617,0.3638,0.3604,0.3701,0.3549,0.35,0.3275,0.3238,0.3622,0.3609,0.3725,0.3724,0.3724,0.3724,0,0.2669,0.2693,0.2738,0.2822,0.2848,0.2909,0.3021,0.3088,0.3207,0.3303,0.3353,0.3481,0.354,0.36,0.3673,0.3611,0.3618,0.3567,0.3284,0.3201,0.3381,0.337,0.3422,0.3417,0.3413,0.3409,0.3406,0,0.264,0.2651,0.2742,0.277,0.2809,0.2893,0.2941,0.3068,0.3127,0.3293,0.3324,0.343,0.344,0.3475,0.3418,0.3389,0.35,0.311,0.304,0.3411,0.3359,0.3354,0.3349,0.2768,0.276,0.2754,0.2748,0,0.2607,0.2649,0.2686,0.2731,0.2787,0.2833,0.2909,0.2948,0.3084,0.3149,0.3202,0.3232,0.3251,0.3086,0.3046,0.3,0.3099,0.2969,0.3452,0.2871,0.2792,0.2741,0.2758,0.269,0.2696,0.27,0.2703,0.2706,0.2596,0.2615,0.2656,0.2686,0.2735,0.2734,0.272,0.2785,0.2818,0.2853,0.2978,0.2913,0.2915,0.2699,0.2591,0.2503,0.2721,0.2605,0.2627,0.2656,0.256,0.2477,0.2297,0.23,0.2303,0.2306,0.2308,0,0.2555,0.2562,0.2594,0.2595,0.2576,0.2646,0.2653,0.2592,0.2538,0.2605,0.2599,0.2359,0.2222,0.2229,0.1994,0.1956,0.1962,0.1876,0.1881,0.194,0.1992,0.1865,0.1416,0.1413,0.1411,0.1408,0,0,0.2537,0.2515,0.2501,0.2413,0.2419,0.2342,0.2316,0.2232,0.2217,0.2114,0.2049,0.2176,0.2194,0.1812,0.173,0.1537,0.1738,0.1468,0.2187,0.2257,0.2306,0.2414,0.2282,0,0,0,0,0]},{"header":{"parameterUnit":"m.s-1","parameterCategory":2,"la1":30.2991,"la2":30.254,"lo1":-89.0895,"lo2":-89.0444,"dy":0.0017,"dx":0.0017,"nx":28,"ny":28,"refTime":"2024-07-17T21:00:00:Z","depth":"2","parameterNumber":3,"parameterNumberName":"V-component_of_CURRENTS"},"data":[0,0,0,0,0,0,0,0,0,0,0,0,0,0,0,0,0,0,0,0,0,0,0,0,0,0,0,0,0,0,0,0,0,0,0,0,0,0,0,0,0,0,0,0,0,0,0,0,0,0,0,0,0,0,0,0,0,0,0.0266,0.0266,0,0.0261,0.0261,0.0261,0.0253,0.0252,0.0252,0.0252,0.023,0.023,0.023,0,0,0,0,0,0,0,0,0,0,0,0,0,0.0242,0.0243,0.0266,0.0266,0.0266,0.0261,0.0261,0.0261,0.0253,0.0252,0.0252,0.0252,0.0231,0.023,0.023,0,0,0,0,0,0,0,0,0,0,0,0,0,0.0247,0.0243,0.0266,0.0261,0.026,0.0261,0.0261,0.0261,0.0253,0.0252,0.0252,0.0252,0.0231,0.023,0.023,0.0232,0,0,0.0228,0.0228,0,0,0,0,0,0,0,0,0.0246,0.0248,0.0262,0.0261,0.026,0.0257,0.0245,0.025,0.0253,0.0256,0.0252,0.0252,0.0238,0.0237,0.0237,0.0231,0.023,0.0228,0.0227,0.0227,0.0227,0,0,0,0,0,0,0,0.0246,0.0248,0.0264,0.0262,0.0261,0.025,0.025,0.0246,0.0248,0.0256,0.0255,0.0254,0.0237,0.0238,0.0236,0.023,0.0228,0.0227,0.0227,0.0227,0.024,0.0241,0,0,0,0,0,0,0.0248,0.0248,0.0265,0.0264,0.0252,0.025,0.0251,0.0259,0.0249,0.0247,0.0254,0.0254,0.0239,0.0237,0.0236,0.026,0.0227,0.0227,0.0226,0.0239,0.024,0.0241,0,0,0,0,0,0,0.0248,0.025,0.0265,0.0255,0.0256,0.0251,0.026,0.0259,0.0263,0.0248,0.0246,0.026,0.0239,0.0236,0.0242,0.0258,0.0226,0.0226,0.0239,0.024,0.0241,0.0295,0,0,0,0,0,0,0.0247,0.025,0.0258,0.0255,0.0257,0.0277,0.026,0.0259,0.0262,0.0262,0.0252,0.025,0.0238,0.0243,0.0242,0.0257,0.0225,0.0238,0.0239,0.024,0.0292,0.0297,0.0302,0,0,0,0,0,0.0246,0.0263,0.0259,0.0261,0.0268,0.0278,0.0278,0.0273,0.0263,0.0274,0.0266,0.025,0.025,0.0244,0.0242,0.0257,0.0237,0.0239,0.024,0.029,0.0296,0.0302,0,0,0,0,0,0,0.0256,0.0263,0.0259,0.0277,0.028,0.0276,0.0285,0.0278,0.028,0.028,0.0261,0.0258,0.0269,0.0256,0.0248,0.0264,0.024,0.0242,0.0279,0.0285,0.029,0.0324,0.0225,0,0,0,0,0,0.0262,0.0278,0.0278,0.0293,0.0297,0.0291,0.0294,0.0292,0.0291,0.0291,0.0285,0.0277,0.0273,0.0274,0.0269,0.0279,0.0261,0.0287,0.0292,0.0296,0.0323,0.0302,0.0308,0.0246,0.0246,0.0246,0,0,0.0267,0.0275,0.0283,0.0296,0.0298,0.0317,0.0293,0.0305,0.0321,0.0289,0.031,0.0295,0.0279,0.0292,0.0295,0.0284,0.0301,0.0298,0.0302,0.0327,0.0305,0.0311,0.0316,0.0247,0.0247,0.0247,0,0,0.0294,0.0297,0.0321,0.033,0.034,0.0339,0.0345,0.0348,0.035,0.0365,0.0344,0.0345,0.0339,0.0337,0.0332,0.0363,0.0327,0.0353,0.041,0.0389,0.0394,0.0398,0.0368,0.0369,0.0357,0.0357,0.0357,0,0.0299,0.0332,0.0329,0.0355,0.037,0.0353,0.0383,0.0383,0.0388,0.0403,0.0381,0.0386,0.0366,0.0386,0.0397,0.0377,0.0354,0.0386,0.0396,0.04,0.0403,0.0371,0.0372,0.036,0.036,0.0359,0.0359,0,0.0345,0.037,0.0386,0.0416,0.0432,0.0455,0.0457,0.0473,0.0469,0.0472,0.0491,0.0464,0.0472,0.0456,0.0438,0.0458,0.0429,0.0402,0.0382,0.0413,0.0377,0.0376,0.0364,0.0363,0.0362,0.0361,0,0,0.0362,0.0408,0.0416,0.045,0.0469,0.0495,0.0522,0.0553,0.0589,0.0574,0.0614,0.0595,0.0581,0.0576,0.0542,0.0527,0.0518,0.0484,0.0481,0.0457,0.0465,0.0434,0.0431,0.0488,0.0488,0.0489,0.0423,0,0.0399,0.0465,0.0478,0.0546,0.0582,0.0587,0.0622,0.0647,0.0657,0.0689,0.0658,0.0682,0.0623,0.0633,0.0604,0.0551,0.0523,0.0538,0.0437,0.0434,0.0406,0.0432,0.0429,0.0371,0.0423,0.0423,0.0423,0,0.0442,0.0485,0.0556,0.063,0.0648,0.0686,0.0757,0.0787,0.0815,0.0823,0.0828,0.0803,0.0792,0.0729,0.0648,0.0659,0.0575,0.0518,0.0513,0.0474,0.0405,0.0351,0.0368,0.0422,0.0422,0.0422,0.0422,0,0.0471,0.0545,0.0609,0.0632,0.0703,0.0748,0.079,0.0835,0.0889,0.0917,0.0958,0.0915,0.0914,0.0812,0.0689,0.0673,0.0585,0.0539,0.0428,0.0423,0.04,0.0393,0.0476,0.0476,0.0477,0.0477,0.0477,0,0.0511,0.0567,0.0634,0.0675,0.0772,0.0802,0.0907,0.0939,0.1001,0.1086,0.1035,0.1074,0.0938,0.0867,0.0729,0.0585,0.0608,0.0455,0.0414,0.0416,0.0411,0.0443,0.044,0.0474,0.0475,0.0475,0.0476,0,0.054,0.0575,0.0665,0.0756,0.0791,0.0868,0.0993,0.1073,0.1114,0.122,0.124,0.1207,0.1115,0.0956,0.0791,0.0653,0.0508,0.0441,0.0449,0.0411,0.0346,0.0346,0.0323,0.0321,0.032,0.0319,0.0319,0,0.0562,0.0608,0.0728,0.0796,0.0845,0.0959,0.1045,0.1123,0.1216,0.1304,0.1363,0.1308,0.127,0.1007,0.0766,0.0524,0.049,0.0355,0.0327,0.0373,0.0335,0.0337,0.0339,0.0303,0.0302,0.0301,0.0301,0,0.0612,0.0653,0.0732,0.0863,0.0971,0.1095,0.1222,0.1309,0.1414,0.1489,0.1552,0.1523,0.129,0.1038,0.0711,0.0539,0.0396,0.0332,0.0387,0.0347,0.035,0.0314,0.0317,0.0294,0.0295,0.0296,0.0296,0.0296,0.0655,0.0717,0.0818,0.0945,0.1067,0.1211,0.1317,0.1443,0.1576,0.1688,0.1662,0.1604,0.1345,0.0908,0.0629,0.0339,0.0364,0.0241,0.0245,0.025,0.0264,0.0266,0.0195,0.0195,0.0196,0.0196,0.0196,0,0.0707,0.0776,0.0893,0.104,0.1169,0.1235,0.1423,0.1521,0.1662,0.1741,0.177,0.1484,0.1205,0.0902,0.0476,0.023,0.0209,0.0131,0.0163,0.0171,0.0178,0.019,0.0101,0.01,0.0099,0.0098,0,0,0.0739,0.084,0.0893,0.1089,0.1203,0.138,0.1491,0.1611,0.1699,0.1749,0.1707,0.1649,0.1285,0.0953,0.0613,0.0362,0.0324,0.0302,0.0404,0.0491,0.0501,0.0264,0.0294,0,0,0,0,0]}],[{"header":{"parameterUnit":"m.s-1","parameterCategory":2,"la1":30.2991,"la2":30.254,"lo1":-89.0895,"lo2":-89.0444,"dy":0.0017,"dx":0.0017,"nx":28,"ny":28,"refTime":"2024-07-17T21:00:00:Z","depth":"4","parameterNumber":2,"parameterNumberName":"U-component_of_CURRENTS"},"data":[0,0,0,0,0,0,0,0,0,0,0,0,0,0,0,0,0,0,0,0,0,0,0,0,0,0,0,0,0,0,0,0,0,0,0,0,0,0,0,0,0,0,0,0,0,0,0,0,0,0,0,0,0,0,0,0,0,0,0.163,0.163,0,0.1618,0.1618,0.1617,0.1637,0.1638,0.1639,0.164,0.1704,0.1704,0.1705,0,0,0,0,0,0,0,0,0,0,0,0,0,0.1608,0.1608,0.163,0.163,0.163,0.1618,0.1618,0.1617,0.1637,0.1638,0.1639,0.1641,0.1703,0.1704,0.1705,0,0,0,0,0,0,0,0,0,0,0,0,0,0.1606,0.1608,0.163,0.1641,0.1642,0.1618,0.1618,0.1617,0.1637,0.1638,0.164,0.1641,0.1703,0.1704,0.1705,0.1685,0,0,0.1709,0.171,0,0,0,0,0,0,0,0,0.1606,0.1607,0.1639,0.164,0.1641,0.1633,0.1633,0.1645,0.1637,0.1636,0.164,0.1642,0.1688,0.169,0.168,0.1688,0.1691,0.1709,0.171,0.1711,0.1711,0,0,0,0,0,0,0,0.1607,0.1607,0.1622,0.1639,0.164,0.1625,0.1627,0.1635,0.1653,0.1636,0.1638,0.1641,0.1689,0.1679,0.1682,0.1692,0.1709,0.171,0.1711,0.1712,0.179,0.1791,0,0,0,0,0,0,0.1615,0.1607,0.1623,0.1622,0.163,0.1625,0.1626,0.1632,0.1652,0.1656,0.164,0.1642,0.1676,0.168,0.1684,0.1766,0.1711,0.1712,0.1712,0.1788,0.179,0.1791,0,0,0,0,0,0,0.1615,0.1617,0.1623,0.1617,0.1617,0.1624,0.163,0.1631,0.1659,0.1654,0.166,0.1671,0.1677,0.1683,0.1727,0.1765,0.1712,0.1713,0.1787,0.1789,0.1791,0.1863,0,0,0,0,0,0,0.1614,0.1617,0.1639,0.1617,0.1618,0.1632,0.1629,0.163,0.1657,0.1661,0.1682,0.1687,0.1679,0.1725,0.1728,0.1766,0.1714,0.1785,0.1788,0.179,0.1859,0.1867,0.1874,0,0,0,0,0,0.1613,0.1627,0.164,0.1643,0.1643,0.1633,0.1632,0.1639,0.1658,0.167,0.1694,0.1688,0.1743,0.1727,0.173,0.1769,0.1784,0.1787,0.179,0.1855,0.1865,0.1874,0,0,0,0,0,0,0.163,0.163,0.1644,0.166,0.1662,0.1638,0.1654,0.166,0.1685,0.1707,0.1704,0.1711,0.1766,0.1754,0.1737,0.1798,0.1763,0.1767,0.1812,0.1821,0.1829,0.1826,0.1715,0,0,0,0,0,0.1645,0.166,0.1655,0.1673,0.1678,0.1676,0.1681,0.1689,0.1699,0.1712,0.1732,0.1753,0.1771,0.1788,0.1802,0.1833,0.1832,0.186,0.1867,0.1874,0.1874,0.1921,0.1933,0.1801,0.1801,0.1801,0,0,0.1655,0.1661,0.167,0.1679,0.1683,0.1685,0.1683,0.1704,0.172,0.1716,0.1767,0.1788,0.1787,0.1826,0.1849,0.1828,0.191,0.1878,0.1884,0.1879,0.1926,0.1939,0.195,0.1803,0.1803,0.1803,0,0,0.1668,0.1693,0.1706,0.1708,0.1726,0.1721,0.1738,0.1747,0.1771,0.1807,0.1819,0.1862,0.1885,0.1894,0.1897,0.1953,0.1953,0.1969,0.2004,0.2051,0.2062,0.2072,0.2081,0.2091,0.1969,0.1969,0.1969,0,0.1688,0.1694,0.1708,0.1716,0.1722,0.1743,0.1752,0.1769,0.1798,0.1828,0.1838,0.1901,0.1909,0.1949,0.1972,0.1972,0.1992,0.197,0.2062,0.2072,0.2081,0.2087,0.2098,0.1973,0.1972,0.1972,0.1972,0,0.1688,0.1709,0.1716,0.1733,0.1747,0.1758,0.178,0.1823,0.1861,0.1879,0.1953,0.1969,0.2008,0.202,0.2012,0.2085,0.2076,0.2072,0.204,0.2099,0.2101,0.2111,0.1978,0.1977,0.1976,0.1975,0,0,0.1688,0.1712,0.1718,0.173,0.1758,0.1764,0.1814,0.1852,0.1899,0.1948,0.2006,0.2045,0.2083,0.2089,0.2103,0.2137,0.2216,0.2141,0.2142,0.2151,0.2311,0.2151,0.2145,0.2248,0.225,0.2252,0.2284,0,0.1685,0.1701,0.1715,0.1737,0.1744,0.1785,0.1824,0.1876,0.193,0.1998,0.2042,0.2106,0.21,0.2146,0.2181,0.2217,0.2246,0.2206,0.225,0.225,0.2103,0.2153,0.2259,0.2291,0.2293,0.2295,0.2296,0,0.167,0.1684,0.1705,0.1744,0.1754,0.1782,0.1861,0.1898,0.1995,0.2052,0.2128,0.2172,0.2245,0.2232,0.2311,0.2298,0.2313,0.2322,0.2324,0.2153,0.2108,0.2221,0.2312,0.2311,0.231,0.2309,0.2308,0,0.1643,0.1674,0.1693,0.1701,0.1751,0.1794,0.1836,0.1928,0.1982,0.2106,0.217,0.2252,0.2316,0.2357,0.2383,0.2374,0.2451,0.2435,0.2293,0.2281,0.2384,0.2373,0.2486,0.2486,0.2485,0.2485,0.2485,0,0.1606,0.1626,0.1691,0.1695,0.1738,0.1792,0.1863,0.1928,0.2041,0.2104,0.2207,0.2267,0.2361,0.241,0.2416,0.2375,0.2482,0.2299,0.2284,0.2411,0.2403,0.239,0.2378,0.2487,0.2486,0.2486,0.2486,0,0.1554,0.1598,0.1615,0.1685,0.1721,0.1752,0.1866,0.191,0.2043,0.2135,0.2187,0.2314,0.2377,0.2424,0.2486,0.24,0.2387,0.2346,0.2466,0.2458,0.2174,0.2166,0.2182,0.2177,0.2173,0.2169,0.2166,0,0.1517,0.1525,0.1598,0.1619,0.1653,0.1725,0.1771,0.1901,0.1948,0.2135,0.2157,0.2285,0.2347,0.2293,0.2359,0.2342,0.2313,0.2273,0.2223,0.2161,0.2147,0.2145,0.2144,0.2159,0.2158,0.2157,0.2155,0,0.1438,0.1481,0.1502,0.1548,0.1596,0.1632,0.1714,0.1747,0.189,0.2031,0.2087,0.2121,0.2176,0.2198,0.22,0.2186,0.228,0.2226,0.2234,0.2187,0.2133,0.2122,0.2126,0.214,0.2142,0.2144,0.2144,0,0.1388,0.138,0.1427,0.1451,0.1508,0.1519,0.1574,0.163,0.17,0.1902,0.1915,0.2045,0.2164,0.2117,0.2123,0.2093,0.2053,0.1961,0.1983,0.2001,0.1922,0.1826,0.1727,0,0,0,0,0,0.1319,0.1307,0.1326,0.1336,0.1388,0.1424,0.1522,0.1582,0.173,0.1717,0.1817,0.1862,0.1887,0.1946,0.1876,0.2028,0.2054,0.1934,0.1958,0.2054,0.2072,0.1995,0,0,0,0,0,0,0.1276,0.1294,0.1289,0.1247,0.1239,0.1277,0.1335,0.1433,0.1433,0.1596,0.1618,0.1733,0.1781,0.1911,0.1839,0.1853,0.1822,0.2011,0.2005,0.2044,0.206,0.2075,0.2002,0,0,0,0,0]},{"header":{"parameterUnit":"m.s-1","parameterCategory":2,"la1":30.2991,"la2":30.254,"lo1":-89.0895,"lo2":-89.0444,"dy":0.0017,"dx":0.0017,"nx":28,"ny":28,"refTime":"2024-07-17T21:00:00:Z","depth":"4","parameterNumber":3,"parameterNumberName":"V-component_of_CURRENTS"},"data":[0,0,0,0,0,0,0,0,0,0,0,0,0,0,0,0,0,0,0,0,0,0,0,0,0,0,0,0,0,0,0,0,0,0,0,0,0,0,0,0,0,0,0,0,0,0,0,0,0,0,0,0,0,0,0,0,0,0,0.0155,0.0155,0,0.015,0.015,0.015,0.0152,0.0152,0.0152,0.0152,0.0137,0.0136,0.0136,0,0,0,0,0,0,0,0,0,0,0,0,0,0.0141,0.0141,0.0155,0.0155,0.0155,0.015,0.015,0.015,0.0152,0.0152,0.0152,0.0152,0.0137,0.0136,0.0136,0,0,0,0,0,0,0,0,0,0,0,0,0,0.0143,0.0142,0.0155,0.0155,0.0155,0.015,0.015,0.015,0.0152,0.0152,0.0152,0.0152,0.0137,0.0136,0.0136,0.013,0,0,0.0134,0.0133,0,0,0,0,0,0,0,0,0.0143,0.0144,0.0155,0.0155,0.0155,0.0151,0.0139,0.0142,0.0152,0.0154,0.0152,0.0152,0.014,0.0139,0.0139,0.0129,0.0129,0.0134,0.0133,0.0133,0.0133,0,0,0,0,0,0,0,0.0143,0.0144,0.0154,0.0155,0.0155,0.0146,0.0146,0.014,0.0147,0.0154,0.0154,0.0152,0.014,0.014,0.0139,0.0129,0.0134,0.0133,0.0133,0.0132,0.0116,0.0116,0,0,0,0,0,0,0.0144,0.0144,0.0154,0.0154,0.0148,0.0146,0.0147,0.0153,0.0147,0.0146,0.0152,0.0152,0.0141,0.014,0.0138,0.0151,0.0133,0.0132,0.0132,0.0116,0.0116,0.0116,0,0,0,0,0,0,0.0143,0.0145,0.0154,0.0147,0.0148,0.0146,0.0153,0.0152,0.0158,0.0146,0.0145,0.0158,0.0141,0.0139,0.0141,0.015,0.0132,0.0131,0.0116,0.0116,0.0116,0.0163,0,0,0,0,0,0,0.0143,0.0145,0.0152,0.0148,0.0148,0.0161,0.0152,0.0152,0.0156,0.0156,0.015,0.0149,0.0141,0.0142,0.014,0.0148,0.0131,0.0116,0.0116,0.0116,0.0162,0.0165,0.0168,0,0,0,0,0,0.0143,0.0154,0.0153,0.0154,0.0158,0.0161,0.0161,0.016,0.0156,0.0164,0.0159,0.0149,0.014,0.0142,0.0139,0.0148,0.0116,0.0116,0.0116,0.0161,0.0164,0.0167,0,0,0,0,0,0,0.0151,0.0155,0.0154,0.0165,0.0166,0.0161,0.0168,0.0163,0.0165,0.0167,0.0154,0.0152,0.0153,0.0142,0.0144,0.014,0.0124,0.0124,0.0159,0.0162,0.0165,0.0176,0.013,0,0,0,0,0,0.0155,0.0167,0.0165,0.0175,0.0177,0.0173,0.0174,0.0174,0.0172,0.0173,0.0168,0.0158,0.015,0.015,0.014,0.0144,0.0121,0.0144,0.0147,0.015,0.0156,0.0131,0.0132,0.0116,0.0116,0.0116,0,0,0.0159,0.0164,0.017,0.0178,0.0178,0.0189,0.0175,0.0182,0.0192,0.017,0.0184,0.0169,0.0151,0.0154,0.0153,0.0149,0.014,0.015,0.0152,0.0157,0.0131,0.0133,0.0134,0.0116,0.0116,0.0116,0,0,0.0176,0.018,0.0196,0.02,0.0205,0.0205,0.0209,0.0209,0.0211,0.0218,0.0201,0.0192,0.0186,0.0175,0.0168,0.0178,0.0153,0.0174,0.0205,0.0181,0.0182,0.0183,0.0149,0.0147,0.018,0.018,0.018,0,0.018,0.0202,0.02,0.0215,0.0226,0.0214,0.0235,0.0233,0.0234,0.024,0.0228,0.0211,0.0194,0.0194,0.0199,0.0186,0.0167,0.0197,0.0186,0.0186,0.0186,0.0152,0.0149,0.0182,0.0182,0.0182,0.0181,0,0.0207,0.0225,0.0235,0.0255,0.0266,0.028,0.028,0.0289,0.0287,0.0285,0.0283,0.0255,0.0249,0.0235,0.0223,0.0219,0.0202,0.019,0.0181,0.0191,0.0153,0.0149,0.0185,0.0185,0.0184,0.0183,0,0,0.0217,0.0248,0.0254,0.0277,0.0291,0.0307,0.0323,0.034,0.0359,0.034,0.0356,0.0327,0.0311,0.0301,0.0275,0.0252,0.023,0.023,0.0228,0.0204,0.0173,0.017,0.0165,0.0222,0.0222,0.0222,0.0144,0,0.0241,0.0284,0.0294,0.034,0.0365,0.0367,0.0388,0.04,0.0402,0.0412,0.0374,0.0378,0.0336,0.0338,0.0306,0.0252,0.0223,0.0252,0.016,0.0157,0.016,0.0162,0.0221,0.0141,0.014,0.0139,0.0138,0,0.0266,0.0297,0.0347,0.0397,0.0409,0.0436,0.0479,0.0496,0.0498,0.0499,0.0486,0.0457,0.0422,0.0384,0.0291,0.0315,0.0252,0.02,0.0196,0.0177,0.0148,0.0128,0.0131,0.0131,0.0132,0.0132,0.0133,0,0.0286,0.0337,0.0385,0.0399,0.0447,0.0478,0.0507,0.0527,0.0559,0.056,0.0575,0.052,0.0501,0.0414,0.0306,0.0304,0.0197,0.0177,0.0109,0.0107,0.0112,0.0112,0.0111,0.0111,0.0111,0.0111,0.0112,0,0.031,0.035,0.0402,0.0429,0.0497,0.0518,0.0588,0.0602,0.0634,0.0676,0.0626,0.0629,0.0511,0.0434,0.0327,0.0206,0.0209,0.0115,0.0091,0.0131,0.0134,0.0108,0.0109,0.0108,0.0109,0.011,0.011,0,0.0325,0.0354,0.0415,0.048,0.0509,0.0561,0.0651,0.0696,0.0717,0.0766,0.0771,0.0714,0.0617,0.0486,0.0339,0.0243,0.0122,0.0077,0.0128,0.0108,0.0039,0.0043,-0.0007,-0.0008,-0.0008,-0.0009,-0.0009,0,0.0334,0.0366,0.0454,0.0503,0.054,0.0623,0.0682,0.0735,0.0783,0.0814,0.0831,0.0764,0.0707,0.0493,0.0347,0.0143,0.0112,0.004,0.0039,0.0048,0.0029,0.0034,0.0039,-0.001,-0.001,-0.001,-0.001,0,0.0354,0.0385,0.044,0.0535,0.0612,0.07,0.0784,0.0826,0.0883,0.0902,0.0888,0.0788,0.0676,0.0501,0.0348,0.0198,0.0081,0.0033,0.0033,0.0032,0.0043,0.0027,0.0032,-0.0012,-0.0012,-0.0012,-0.0012,0,0.0371,0.0408,0.0479,0.0569,0.0662,0.0747,0.0796,0.0856,0.0906,0.0935,0.0925,0.081,0.0746,0.0529,0.0384,0.0243,0.0199,0.0138,0.0132,0.0132,0.0194,0.023,0.0215,0,0,0,0,0,0.0385,0.0431,0.0509,0.0605,0.0695,0.0751,0.0851,0.0891,0.0943,0.0943,0.0941,0.084,0.064,0.0546,0.0406,0.0356,0.0163,0.0183,0.0086,-0.0023,-0.0021,0.0029,0,0,0,0,0,0,0.0397,0.0465,0.0505,0.0617,0.0684,0.0785,0.0852,0.0891,0.0891,0.0918,0.0813,0.0784,0.0585,0.0719,0.0395,0.0353,0.0267,0.0096,0.0093,-0.0024,-0.0022,-0.002,0.0031,0,0,0,0,0]}]]